Regional Weather Roundup
Issued by NWS

Home | Current Version | Previous Version | Graphics & Text | Print | Product List | Glossary On
Versions: 1 2 3 4 5 6 7 8 9 10 11 12 13 14 15 16 17 18 19 20 21 22 23 24 25 26 27 28 29 30 31 32 33 34 35 36 37 38 39 40 41 42 43 44 45 46 47 48 49 50
266
ASUS45 KSLC 191710
RWRUT

UTAH REGIONAL WEATHER ROUNDUP
NATIONAL WEATHER SERVICE SALT LAKE CITY UT
1100 AM MDT TUE SEP 19 2017

UTZ001>011-023>025-191800-

NORTHERN UTAH

CITY           SKY/WX    TMP DP  RH WIND       PRES   REMARKS
BRIGHAM CITY   CLOUDY    49  34  56 SE5       29.94R
HILL AFB       CLOUDY    49  36  62 NW5       29.94R
LOGAN          CLOUDY    46  40  79 S8        29.93R
OGDEN          LGT RAIN  50  40  68 W6        29.94R
SALT LAKE CITY CLOUDY    52  43  71 SW3       29.93R
TOOELE VALLEY  CLOUDY    54  43  66 CALM      29.94S
WENDOVER         N/A    N/A N/A N/A MISG        N/A
HEBER CITY     DRIZZLE   50  43  76 E13       29.88R
WEST JORDAN    CLOUDY    48  46  91 N7        29.95S

$$

UTZ011>015-024>027-191800-

CENTRAL/NORTHEAST UTAH

CITY           SKY/WX    TMP DP  RH WIND       PRES   REMARKS
PROVO AIRPORT  LGT RAIN  50  44  80 NW18      29.93R
MOAB/CANYONLAN MOSUNNY   77  29  17 SW28G35   29.79F
DELTA          SUNNY     64  37  36 N9        29.87R
PRICE          PTSUNNY   69  34  27 SW14G23   29.83F
ROOSEVELT      CLOUDY    70  36  28 W17G28    29.78S
VERNAL         CLOUDY    70  34  26 SW24G31   29.75F

$$

UTZ013>016-019>022-027-191800-

SOUTHERN UTAH

CITY           SKY/WX    TMP DP  RH WIND       PRES   REMARKS
BRYCE CANYON   MOSUNNY   59  36  42 SW16G24   30.07R
CEDAR CITY     PTSUNNY   68  38  33 S24G32    29.94R
MILFORD        MOSUNNY   69  39  33 SW28G40   29.90R
ST GEORGE      CLOUDY    79  42  26 W7        29.86R
HANKSVILLE     MOSUNNY   75  32  20 SW21G32   29.85S
BLANDING         N/A     66  24  20 S14       30.09F

$$

REGIONAL REPORTS     COLORADO/ARIZONA

CITY           SKY/WX    TMP DP  RH WIND       PRES   REMARKS
CRAIG, CO      PTSUNNY   70  20  15 SW25G41   29.81R
GRAND JUNCTION SUNNY     75  22  13 SW14      29.83F
RIFLE, CO      SUNNY     74  18  12 W12G20    29.84F
MONTROSE, CO   SUNNY     71  20  14 SW14G24   29.95F
CORTEZ, CO     CLOUDY    68  25  19 S15       30.05F
PAGE, AZ       MOSUNNY   74  33  22 SW8       29.91F
GRAND CANYON   MOSUNNY   64  34  32 SW17G31   30.12R
KINGMAN, AZ    SUNNY     78  46  32 S21G30    29.95R
FLAGSTAFF, AZ  SUNNY     62  27  26 SW28G35   30.15S

$$

REGIONAL REPORTS    NEVADA/IDAHO/WYOMING

CITY           SKY/WX    TMP DP  RH WIND       PRES   REMARKS
LAS VEGAS, NV  MOSUNNY   80  43  26 S13G22    29.81R
ELY, NY        SUNNY     62  33  33 W12G18    29.95S
ELKO, NV       CLOUDY    56  29  35 W25G32    29.95S
POCATELLO, ID  CLOUDY    48  38  68 W18       29.89S
BURLEY, ID     PTSUNNY   46  38  73 NW13G20   29.92R
FORT BRIDGER,  SNOW      34  34 100 W6        29.98R VSB 1/4 WCI  29
EVANSTON, WY   FLURRIES  35  35 100 CALM      29.95S
ROCK SPRINGS,  RAIN      37  35  92 W15G25    29.91R FOG     WCI  28
KEMMERER, WY   LGT SNOW  32  32 100 W24G30    29.91R WCI  19

$$




USA.gov is the U.S. government's official web portal to all federal, state and local government web resources and services.